Anoka County, MN

12:50 AM CDT on October 21, 2019 (GMT -0500)
Anoka County / Blaine Airport

Weather History for KANE - August, 2019

Change the Weather History Date:

Friday, August 9, 2019

  Actual Average Record
Temperature  
Mean Temperature 66 °F -  
Max Temperature 78 °F 77 °F 89 °F (2007)
Min Temperature 53 °F 57 °F 53 °F (2003)
Growing Degree Days 16 (Base 50)    
Moisture  
Dew Point 53 °F    
Average Humidity 70    
Maximum Humidity 94    
Minimum Humidity 34    
Precipitation  
Precipitation 0.00 in - - ()
Sea Level Pressure  
Sea Level Pressure 29.98 in    
Wind  
Wind Speed 2 mph (WNW)    
Max Wind Speed 8 mph    
Max Gust Speed -    
Visibility 10 miles    
Events      
Averages and records for this station are not official NWS values.
T = Trace of Precipitation, MM = Missing Value Source: NWS Daily Summary

Daily Weather History Graph

Daily Weather History Graph

Search for Another Location

Airport or City:

Astronomy

Aug. 09, 2019 Rise Set
Actual Time 6:06 AM CDT 8:29 PM CDT
Civil Twilight 5:34 AM CDT 9:01 PM CDT
Nautical Twilight 4:53 AM CDT 9:42 PM CDT
Astronomical Twilight 4:06 AM CDT 10:28 PM CDT
Moon 4:14 PM CDT (8/9) 1:03 AM CDT (8/9)
Length of Visible Light 15h 27m
Length of Day
14h 22m
Waxing Gibbous, 70% of the Moon is Illuminated
Aug 9
Waxing Gibbous
Aug 15
Full
Aug 23
Last Quarter
Aug 30
New
Sep 5
First Quarter

Hourly Weather History & Observations

Time (CDT) Temp. Dew Point Humidity Pressure Visibility Wind Dir Wind Speed Gust Speed Precip Events Conditions
12:16 AM 60.8 °F 51.8 °F 72% 29.97 in 10.0 mi WNW 3.5 mph - N/A   Clear
12:36 AM 60.8 °F 51.8 °F 72% 29.98 in 10.0 mi WNW 3.5 mph - N/A   Clear
12:56 AM 60.8 °F 50.0 °F 68% 29.98 in 10.0 mi NW 3.5 mph - N/A   Clear
1:15 AM 60.8 °F 50.0 °F 68% 29.97 in 10.0 mi NW 3.5 mph - N/A   Clear
1:37 AM 60.8 °F 50.0 °F 68% 29.97 in 10.0 mi NW 4.6 mph - N/A   Clear
1:56 AM 59.0 °F 50.0 °F 72% 29.97 in 10.0 mi Calm Calm - N/A   Clear
2:16 AM 59.0 °F 50.0 °F 72% 29.97 in 10.0 mi Calm Calm - N/A   Clear
2:59 AM 59.0 °F 51.8 °F 77% 29.97 in 10.0 mi Calm Calm - N/A   Clear
3:16 AM 59.0 °F 51.8 °F 77% 29.97 in 10.0 mi Calm Calm - N/A   Clear
3:36 AM 57.2 °F 50.0 °F 77% 29.97 in 10.0 mi Calm Calm - N/A   Clear
3:55 AM 57.2 °F 51.8 °F 82% 29.97 in 10.0 mi Calm Calm - N/A   Clear
4:15 AM 55.4 °F 51.8 °F 88% 29.97 in 10.0 mi Calm Calm - N/A   Clear
4:20 AM 55.4 °F 51.8 °F 88% 29.98 in 10.0 mi Calm Calm - N/A   Clear
4:37 AM 55.4 °F 51.8 °F 88% 29.98 in 10.0 mi Calm Calm - N/A   Clear
4:56 AM 55.4 °F 53.6 °F 94% 29.98 in 10.0 mi Calm Calm - N/A   Clear
5:16 AM 55.4 °F 51.8 °F 88% 29.99 in 10.0 mi Calm Calm - N/A   Clear
5:36 AM 55.4 °F 53.6 °F 94% 29.99 in 10.0 mi Calm Calm - N/A   Clear
5:58 AM 55.4 °F 53.6 °F 94% 29.99 in 10.0 mi Calm Calm - N/A   Clear
6:16 AM 55.4 °F 53.6 °F 94% 30.00 in 10.0 mi Calm Calm - N/A   Clear
6:36 AM 53.6 °F 51.8 °F 94% 30.00 in 10.0 mi Calm Calm - N/A   Clear
6:56 AM 55.4 °F 53.6 °F 94% 30.01 in 10.0 mi Calm Calm - N/A   Clear
6:59 AM 55.4 °F 53.6 °F 94% 30.01 in 10.0 mi WSW 4.6 mph - N/A   Scattered Clouds
7:45 AM 60.8 °F 55.4 °F 82% 30.02 in 10.0 mi West 5.8 mph - N/A   Scattered Clouds
8:45 AM 66.2 °F 53.6 °F 64% 30.02 in 10.0 mi West 5.8 mph - N/A   Scattered Clouds
9:50 AM 71.6 °F 53.6 °F 53% 30.03 in 10.0 mi WNW 4.6 mph - N/A   Mostly Cloudy
10:45 AM 73.4 °F 53.6 °F 50% 30.02 in 10.0 mi WNW 3.5 mph - N/A   Mostly Cloudy
11:55 AM 75.2 °F 51.8 °F 44% 30.02 in 10.0 mi WNW 6.9 mph - N/A   Mostly Cloudy
12:50 PM 75.2 °F 51.8 °F 44% 30.01 in 10.0 mi West 5.8 mph - N/A   Mostly Cloudy
1:45 PM 77.0 °F 46.4 °F 34% 30.00 in 10.0 mi Variable 3.5 mph - N/A   Mostly Cloudy
2:45 PM 78.8 °F 48.2 °F 34% 29.99 in 10.0 mi Variable 3.5 mph - N/A   Scattered Clouds
3:45 PM 78.8 °F 48.2 °F 34% 29.97 in 10.0 mi Variable 3.5 mph - N/A   Scattered Clouds
4:45 PM 78.8 °F 51.8 °F 39% 29.97 in 10.0 mi West 8.1 mph - N/A   Mostly Cloudy
6:45 PM 75.2 °F 53.6 °F 47% 29.98 in 10.0 mi West 6.9 mph - N/A   Overcast
7:45 PM 73.4 °F 55.4 °F 53% 29.98 in 10.0 mi West 5.8 mph - N/A   Overcast
8:45 PM 73.4 °F 55.4 °F 53% 29.97 in 10.0 mi Calm Calm - N/A   Overcast
9:45 PM 69.8 °F 57.2 °F 64% 29.96 in 10.0 mi Calm Calm - N/A   Overcast
10:15 PM 69.8 °F 57.2 °F 64% 29.96 in 10.0 mi Calm Calm - N/A   Clear
10:36 PM 68.0 °F 57.2 °F 68% 29.97 in 10.0 mi Calm Calm - N/A   Scattered Clouds
10:56 PM 69.8 °F 59.0 °F 68% 29.97 in 10.0 mi Calm Calm - N/A   Mostly Cloudy
11:18 PM 66.2 °F 60.8 °F 83% 29.97 in 10.0 mi Calm Calm - N/A   Scattered Clouds
11:36 PM 69.8 °F 57.2 °F 64% 29.97 in 10.0 mi Calm Calm - N/A   Mostly Cloudy
11:56 PM 69.8 °F 57.2 °F 64% 29.97 in 10.0 mi Calm Calm - N/A   Overcast